Location: Unspecified
(49.2170°N, 0.0000°E)
Time: 17:23:55
(UTC+00:00)

Envisat - Pass Details

Date: 04 December 2020
Orbit: 764 x 766 km, 98.1° (Epoch: 20 January)

Event Time Altitude Azimuth Distance (km) Brightness Sun altitude
Rises 05:05:58 0° 22° (NNE) 3,246 6.4 -23.8°
Reaches altitude 10° 05:08:36 10° 34° (NE) 2,314 5.8 -23.4°
Maximum altitude 05:13:00 29° 94° (E) 1,390 5.0 -22.7°
Drops below altitude 10° 05:17:22 10° 153° (SSE) 2,298 5.9 -22.0°
Sets 05:19:57 0° 165° (SSE) 3,219 6.6 -21.5°
